Flag for South Africa Weather past 2 weeks in Pretoria, South Africa

Now
59 °F

Cool.


Feels Like: 57 °F
Forecast: 61 / 77 °F
Wind: 9 mph from Northeast

Location: Waterkloof Lmb

Current Time: Mar 30, 2015 at 7:05:42 AM

Latest Report: Mar 30, 2015 at 6:00 AM


Visibility: N/A

Pressure: 30.21 "Hg

Humidity: 94%

Dew point: 57 °F

Location of PretoriaLocation

Historic Weather in Pretoria — Graph

°F

Pretoria temperature yesterday

Maximum temperature yesterday: 79 °F (at 3:00 PM)
Minimum temperature yesterday: 64 °F (at 10:00 PM)
Average temperature yesterday: 72 °F

Past Weeks' High & Low Weather Summary

 TemperatureHumidityPressure
High88 °F (Mar 17, 4:00 PM)100% (Mar 20, 4:00 AM)30.39 "Hg (Mar 20, 4:00 AM)
Low57 °F (Mar 20, 4:00 AM)21% (Mar 17, 4:00 PM)30.09 "Hg (Mar 17, 4:00 PM)
Average70 °F64%30.22 "Hg
* Reported Mar 15 6:00 AM — Mar 30 6:00 AM, Pretoria, Weather by CustomWeather, © 2015

Note: Actual official high and low records may vary slightly from our data, if they occured in-between our weather recording intervals... More about our weather records

Advertising

Pretoria weather history for previous 24 hours

 ConditionsComfort  
Time TempWeatherWind HumidityBarometerVisibility
6:00 AM
Mon, Mar 30
59 °FCool.9 mph94%30.21 "HgN/A
5:00 AM59 °FCool.6 mph88%30.21 "HgN/A
3:00 AM61 °FCool.6 mph83%30.18 "HgN/A
2:00 AM63 °FMild.6 mph77%30.18 "HgN/A
1:00 AM63 °FMild.5 mph73%30.18 "HgN/A
12:00 AM64 °FMild.5 mph68%30.18 "HgN/A
11:00 PM
Sun, Mar 29
64 °FMild.5 mph64%30.18 "HgN/A
10:00 PM64 °FMild.5 mph64%30.18 "HgN/A
9:00 PM66 °FMild.5 mph60%30.15 "HgN/A
8:00 PM66 °FMild.5 mph64%30.15 "HgN/A
7:00 PM68 °FMild.1 mph53%30.15 "HgN/A
6:00 PM72 °FMild.5 mph44%30.12 "HgN/A
5:00 PM75 °FMild.8 mph31%30.12 "HgN/A
4:00 PM79 °FPleasantly warm.6 mph32%30.12 "HgN/A
3:00 PM79 °FPleasantly warm.5 mph34%30.12 "HgN/A
2:00 PM77 °FPleasantly warm.6 mph36%30.15 "HgN/A
1:00 PM75 °FMild.2 mph44%30.15 "HgN/A
12:00 PM73 °FMild.5 mph50%30.18 "HgN/A
Weather by CustomWeather, © 2015

See weather overviewHow to use our weather pages